This is the latest recevied weather packets stored in our database for station/object KD8NVS-13. If no packets are shown the sender has not sent any weather packets the latest 10 day(s).
| Time | Temp. | Humidity | Pressure | Rain* | Wind** | Luminosity | Snow |
|---|---|---|---|---|---|---|---|
| 1777921419 | 22.22° C | 54% | 997.6 hPa | 0 mm | - | 115 W/m² | - |
| 1777921116 | 22.78° C | 55% | 997.6 hPa | 0 mm | - | 128 W/m² | - |
| 1777920813 | 22.22° C | 52% | 998 hPa | 0 mm | - | 196 W/m² | - |
| 1777920509 | 22.22° C | 52% | 997.6 hPa | 0 mm | - | 180 W/m² | - |
| 1777920205 | 22.22° C | 54% | 998 hPa | 0 mm | - | 114 W/m² | - |
| 1777919900 | 22.78° C | 53% | 998 hPa | 0 mm | - | 134 W/m² | - |
| 1777919598 | 22.78° C | 54% | 998.3 hPa | 0 mm | - | 176 W/m² | - |
| 1777919296 | 22.22° C | 54% | 998 hPa | 0 mm | - | 249 W/m² | - |
| 1777918993 | 21.67° C | 54% | 998.3 hPa | 0 mm | - | 280 W/m² | - |
| 1777918690 | 21.67° C | 53% | 998.3 hPa | 0 mm | - | 313 W/m² | - |
| 1777918388 | 21.67° C | 52% | 998.3 hPa | 0 mm | - | 288 W/m² | - |
| 1777918087 | 21.11° C | 55% | 998.3 hPa | 0 mm | - | 355 W/m² | - |
| 1777917785 | 21.67° C | 54% | 998.3 hPa | 0 mm | - | 301 W/m² | - |
| 1777917482 | 21.67° C | 53% | 998 hPa | 0 mm | - | 341 W/m² | - |
| 1777917179 | 21.67° C | 54% | 998.3 hPa | 0 mm | - | 318 W/m² | - |
| 1777916877 | 21.67° C | 54% | 998 hPa | 0 mm | - | 251 W/m² | - |
| 1777916574 | 21.67° C | 55% | 998.3 hPa | 0 mm | - | 199 W/m² | - |
| 1777916270 | 21.11° C | 56% | 998.3 hPa | 0 mm | - | 110 W/m² | - |
| 1777915968 | 21.11° C | 54% | 998.3 hPa | 0 mm | - | 113 W/m² | - |
| 1777915664 | 21.67° C | 57% | 998.7 hPa | 0 mm | - | 99 W/m² | - |
| 1777915361 | 21.11° C | 57% | 998.7 hPa | 0 mm | - | 101 W/m² | - |
| 1777915057 | 20.56° C | 54% | 998.7 hPa | 0 mm | - | 98 W/m² | - |
| 1777914754 | 20.56° C | 56% | 998.7 hPa | 0 mm | - | 93 W/m² | - |
| 1777914451 | 20.56° C | 57% | 998.7 hPa | 0 mm | - | 89 W/m² | - |
| 1777914149 | 20.56° C | 57% | 998.7 hPa | 0 mm | - | 89 W/m² | - |
* Rain latest hour (hover to see other rain measurements)
** Current wind speed in m/s (hover to see current wind gust speed)